| time (UTC) | temp C | wind direction | speed KPH | gust KPH | rain 1hr cm | rain 24hr cm | rain mn cm | humidity % | barometer mb |
| 20260504030024 | 7 | 202 | 0.0 | 0.0 | 0.00 | 0.00 | 0.00 | 54 | 1014.8 |
| 20260504024532 | 7 | 201 | 0.0 | 0.0 | 0.00 | 0.00 | 0.00 | 53 | 1014.7 |
| 20260504023023 | 8 | 194 | 0.0 | 4.8 | 0.00 | 0.00 | 0.00 | 52 | 1014.7 |
| 20260504021525 | 8 | 194 | 0.0 | 0.0 | 0.00 | 0.00 | 0.00 | 52 | 1014.9 |
| 20260504020025 | 8 | 195 | 0.0 | 0.0 | 0.00 | 0.00 | 0.00 | 52 | 1014.8 |
| 20260504014522 | 8 | 195 | 0.0 | 0.0 | 0.00 | 0.00 | 0.00 | 49 | 1014.8 |
| 20260504013033 | 8 | 211 | 0.0 | 0.0 | 0.00 | 0.00 | 0.00 | 47 | 1014.7 |
| 20260504011520 | 9 | 229 | 0.0 | 0.0 | 0.00 | 0.00 | 0.00 | 48 | 1014.6 |
| 20260504010020 | 10 | 229 | 0.0 | 0.0 | 0.00 | 0.00 | 0.00 | 47 | 1014.6 |
| 20260504004519 | 10 | 229 | 0.0 | 0.0 | 0.00 | 0.00 | 0.00 | 42 | 1014.6 |
| 20260504003034 | 11 | 229 | 0.0 | 3.2 | 0.00 | 0.00 | 0.00 | 39 | 1014.6 |
| 20260504001519 | 11 | 185 | 0.0 | 6.4 | 0.00 | 0.00 | 0.00 | 41 | 1014.5 |
| 20260504000018 | 12 | 264 | 0.0 | 12.9 | 0.00 | 0.00 | 0.00 | 38 | 1014.5 |
| 20260503234516 | 13 | 255 | 1.6 | 12.9 | 0.00 | 0.00 | 0.00 | 36 | 1014.5 |
| 20260503233015 | 13 | 51 | 1.6 | 17.7 | 0.00 | 0.00 | 0.00 | 33 | 1014.7 |
| 20260503231515 | 13 | 275 | 1.6 | 11.3 | 0.00 | 0.00 | 0.00 | 34 | 1014.7 |
| 20260503230017 | 13 | 268 | 1.6 | 14.5 | 0.00 | 0.00 | 0.00 | 32 | 1014.8 |
| 20260503224524 | 13 | 299 | 0.0 | 16.1 | 0.00 | 0.00 | 0.00 | 32 | 1014.8 |
| 20260503223012 | 13 | 244 | 1.6 | 20.9 | 0.00 | 0.00 | 0.00 | 31 | 1014.9 |
| 20260503221512 | 14 | 280 | 8.0 | 17.7 | 0.00 | 0.00 | 0.00 | 30 | 1015.1 |
| 20260503220019 | 14 | 274 | 4.8 | 17.7 | 0.00 | 0.00 | 0.00 | 31 | 1015.1 |
| 20260503214511 | 14 | 264 | 4.8 | 29.0 | 0.00 | 0.00 | 0.00 | 30 | 1015.0 |
| 20260503213011 | 14 | 293 | 3.2 | 16.1 | 0.00 | 0.00 | 0.00 | 31 | 1015.0 |
| 20260503211512 | 15 | 302 | 4.8 | 20.9 | 0.00 | 0.00 | 0.00 | 30 | 1014.8 |
| 20260503210011 | 15 | 279 | 3.2 | 17.7 | 0.00 | 0.00 | 0.00 | 29 | 1014.9 |
| 20260503204507 | 15 | 233 | 9.7 | 17.7 | 0.00 | 0.00 | 0.00 | 33 | 1015.1 |
| 20260503203005 | 15 | 114 | 6.4 | 17.7 | 0.00 | 0.00 | 0.00 | 32 | 1015.3 |
| 20260503201504 | 15 | 246 | 6.4 | 20.9 | 0.00 | 0.00 | 0.00 | 31 | 1015.7 |
| 20260503200002 | 15 | 198 | 4.8 | 19.3 | 0.00 | 0.00 | 0.00 | 34 | 1016.0 |
| 20260503194604 | 15 | 236 | 4.8 | 17.7 | 0.00 | 0.00 | 0.00 | 31 | 1016.2 |
| 20260503193057 | 15 | 233 | 1.6 | 9.7 | 0.00 | 0.00 | 0.00 | 32 | 1016.4 |
| 20260503191556 | 15 | 269 | 4.8 | 19.3 | 0.00 | 0.00 | 0.00 | 31 | 1016.6 |
| 20260503190054 | 15 | 269 | 8.0 | 22.5 | 0.00 | 0.00 | 0.00 | 35 | 1017.0 |
| 20260503184605 | 14 | 278 | 4.8 | 17.7 | 0.00 | 0.00 | 0.00 | 33 | 1017.1 |
| 20260503183057 | 13 | 41 | 3.2 | 16.1 | 0.00 | 0.00 | 0.00 | 33 | 1017.2 |
| 20260503181555 | 13 | 273 | 3.2 | 12.9 | 0.00 | 0.00 | 0.00 | 34 | 1017.3 |
| 20260503180049 | 13 | 273 | 1.6 | 25.7 | 0.00 | 0.00 | 0.00 | 35 | 1017.2 |
| 20260503174546 | 14 | 240 | 4.8 | 20.9 | 0.00 | 0.03 | 0.00 | 33 | 1017.5 |
| 20260503173045 | 14 | 300 | 4.8 | 17.7 | 0.00 | 0.03 | 0.00 | 36 | 1017.8 |
| 20260503171606 | 13 | 284 | 6.4 | 24.1 | 0.00 | 0.03 | 0.00 | 37 | 1018.0 |
| 20260503081602 | 0 | 290 | 0.0 | 0.0 | 0.00 | 0.10 | 0.00 | 74 | 1018.2 |
| 20260503080109 | 1 | 290 | 0.0 | 0.0 | 0.00 | 0.10 | 0.00 | 74 | 1018.1 |
| 20260503071609 | 1 | 290 | 0.0 | 0.0 | 0.00 | 0.10 | 0.00 | 74 | 1017.9 |
| 20260503054557 | 1 | 290 | 0.0 | 0.0 | 0.00 | 0.10 | 0.00 | 73 | 1018.0 |
| 20260503053042 | 1 | 290 | 0.0 | 0.0 | 0.00 | 0.10 | 0.00 | 73 | 1018.2 |
| 20260503051539 | 1 | 290 | 0.0 | 0.0 | 0.00 | 0.10 | 0.00 | 73 | 1018.2 |
| 20260503050044 | 1 | 290 | 0.0 | 3.2 | 0.00 | 0.10 | 0.00 | 72 | 1018.1 |
| 20260503044548 | 1 | 296 | 0.0 | 1.6 | 0.00 | 0.10 | 0.10 | 71 | 1018.1 |
| 20260503043044 | 1 | 296 | 0.0 | 0.0 | 0.00 | 0.10 | 0.10 | 71 | 1018.2 |
| 20260503041535 | 1 | 296 | 0.0 | 0.0 | 0.00 | 0.10 | 0.10 | 70 | 1018.2 |
| 20260503040038 | 1 | 296 | 0.0 | 0.0 | 0.00 | 0.10 | 0.10 | 69 | 1018.3 |
| 20260503034533 | 2 | 296 | 0.0 | 0.0 | 0.00 | 0.10 | 0.10 | 68 | 1018.3 |
| 20260503033033 | 2 | 296 | 0.0 | 0.0 | 0.00 | 0.10 | 0.10 | 67 | 1018.3 |
| 20260503031534 | 3 | 296 | 0.0 | 3.2 | 0.00 | 0.10 | 0.10 | 66 | 1018.2 |